Frenchville, ME

6:37 AM EDT on May 30, 2017 (GMT -0400)
Northern Aroostook Regional

Weather History for KFVE - September, 2013

Change the Weather History Date:

Sunday, September 8, 2013

  Actual Average Record
Temperature  
Mean Temperature 50 °F 57 °F  
Max Temperature 58 °F 66 °F 84 °F (2001)
Min Temperature 41 °F 47 °F 35 °F (2014)
Degree Days  
Heating Degree Days 15    
Month to date heating degree days 73  
Since 1 July heating degree days 236  
Cooling Degree Days 0    
Month to date cooling degree days 3  
Year to date cooling degree days 138  
Moisture  
Dew Point 45 °F    
Average Humidity 80    
Maximum Humidity 96    
Minimum Humidity 49    
Precipitation  
Precipitation 0.01 in 0.12 in 0.95 in (2010)
Month to date precipitation 1.14 0.99  
Year to date precipitation 25.65 23.05  
Snow  
Snow 0.00 in - - ()
Month to date snowfall 0.0  
Snow Depth 0.00 in    
Sea Level Pressure  
Sea Level Pressure 29.73 in    
Wind  
Wind Speed 14 mph (NW)    
Max Wind Speed 31 mph    
Max Gust Speed 39 mph    
Visibility 10 miles    
Events Rain    
T = Trace of Precipitation, MM = Missing Value Source: NWS Daily Summary

Daily Weather History Graph

Daily Weather History Graph

Search for Another Location

Airport or City:

Trip Planner

Search our weather history database for the weather conditions in past years. The results will help you decide how hot, cold, wet, or windy it might be!

Date:

Astronomy

Sep. 08, 2013 Rise Set
Actual Time 6:01 AM EDT 6:58 PM EDT
Civil Twilight 5:30 AM EDT 7:30 PM EDT
Nautical Twilight 4:53 AM EDT 8:07 PM EDT
Astronomical Twilight 4:13 AM EDT 8:46 PM EDT
Moon 9:32 AM EDT (9/8) 8:13 PM EDT (9/8)
Length of Visible Light 13h 59m
Length of Day
12h 57m
Waxing Crescent, 11% of the Moon is Illuminated
Sep 8
Waxing Crescent
Sep 12
First Quarter
Sep 19
Full
Sep 26
Last Quarter
Oct 4
New

Hourly Weather History & Observations

Time (EDT) Temp. Windchill Dew Point Humidity Pressure Visibility Wind Dir Wind Speed Gust Speed Precip Events Conditions
12:25 AM 57.2 °F - 55.4 °F 94% 29.67 in 9.0 mi WNW 8.1 mph - 0.00 in   Overcast
12:53 AM 57.0 °F - 55.9 °F 96% 29.65 in 10.0 mi West 6.9 mph - 0.00 in Rain Light Rain
1:37 AM 57.2 °F - 55.4 °F 94% 29.66 in 10.0 mi WNW 5.8 mph - 0.00 in Rain Light Rain
1:41 AM 57.2 °F - 55.4 °F 94% 29.66 in 10.0 mi WNW 6.9 mph - 0.00 in Rain Light Rain
1:53 AM 57.9 °F - 55.9 °F 93% 29.65 in 10.0 mi WNW 9.2 mph - 0.00 in   Overcast
2:00 AM 57.2 °F - 55.4 °F 94% 29.65 in 10.0 mi NW 5.8 mph - N/A   Overcast
2:38 AM 57.2 °F - 55.4 °F 94% 29.66 in 10.0 mi NNW 16.1 mph 24.2 mph 0.00 in Rain Light Rain
2:47 AM 55.4 °F - 51.8 °F 88% 29.66 in 10.0 mi NNW 16.1 mph 24.2 mph 0.00 in Rain Light Rain
2:53 AM 54.0 °F - 52.0 °F 93% 29.66 in 10.0 mi NNW 12.7 mph 21.9 mph 0.00 in   Overcast
3:04 AM 53.6 °F - 51.8 °F 94% 29.66 in 10.0 mi NNW 11.5 mph 23.0 mph N/A   Overcast
3:53 AM 51.1 °F - 48.0 °F 89% 29.66 in 10.0 mi NNW 16.1 mph 24.2 mph N/A   Overcast
4:53 AM 50.0 °F - 46.0 °F 86% 29.66 in 10.0 mi NNW 16.1 mph - 0.01 in   Overcast
5:53 AM 48.9 °F - 45.0 °F 86% 29.69 in 10.0 mi NW 13.8 mph - N/A   Overcast
6:53 AM 46.9 °F - 42.1 °F 83% 29.69 in 10.0 mi NNW 11.5 mph - N/A   Clear
7:53 AM 46.9 °F - 42.1 °F 83% 29.69 in 10.0 mi NNW 11.5 mph - N/A   Partly Cloudy
8:53 AM 48.0 °F - 43.0 °F 83% 29.70 in 10.0 mi NW 12.7 mph 19.6 mph N/A   Overcast
9:24 AM 48.2 °F - 42.8 °F 82% 29.70 in 10.0 mi NNW 16.1 mph 24.2 mph N/A   Mostly Cloudy
9:53 AM 50.0 °F - 42.1 °F 74% 29.70 in 10.0 mi NW 13.8 mph 23.0 mph N/A   Mostly Cloudy
10:13 AM 50.0 °F - 42.8 °F 76% 29.70 in 10.0 mi NNW 23.0 mph 26.5 mph N/A   Mostly Cloudy
10:38 AM 50.0 °F - 42.8 °F 76% 29.69 in 10.0 mi North 12.7 mph 25.3 mph 0.00 in   Overcast
10:53 AM 50.0 °F - 41.0 °F 71% 29.70 in 10.0 mi NNW 15.0 mph 25.3 mph 0.00 in   Overcast
11:53 AM 53.1 °F - 43.0 °F 69% 29.71 in 10.0 mi NW 18.4 mph 24.2 mph N/A   Overcast
12:53 PM 54.0 °F - 39.9 °F 59% 29.71 in 10.0 mi NW 15.0 mph 23.0 mph 0.00 in   Mostly Cloudy
1:53 PM 55.0 °F - 36.0 °F 49% 29.71 in 10.0 mi NNW 15.0 mph 27.6 mph N/A   Mostly Cloudy
2:53 PM 53.1 °F - 37.0 °F 55% 29.73 in 10.0 mi NNW 16.1 mph 27.6 mph 0.00 in   Mostly Cloudy
3:53 PM 50.0 °F - 37.9 °F 63% 29.75 in 10.0 mi WNW 23.0 mph 29.9 mph 0.00 in   Mostly Cloudy
4:53 PM 51.1 °F - 37.9 °F 61% 29.78 in 10.0 mi WNW 20.7 mph 29.9 mph N/A   Mostly Cloudy
5:53 PM 46.9 °F - 37.0 °F 68% 29.81 in 10.0 mi NW 12.7 mph 23.0 mph 0.00 in   Partly Cloudy
6:53 PM 45.0 °F 38.9 °F 39.0 °F 80% 29.84 in 10.0 mi NW 12.7 mph 26.5 mph 0.00 in Rain Light Rain
7:53 PM 44.1 °F 38.1 °F 39.0 °F 82% 29.86 in 10.0 mi WNW 11.5 mph - 0.00 in   Mostly Cloudy
8:53 PM 42.1 °F 35.2 °F 37.9 °F 85% 29.88 in 10.0 mi WNW 12.7 mph - N/A   Partly Cloudy
9:53 PM 42.1 °F 36.1 °F 37.0 °F 82% 29.90 in 10.0 mi WNW 10.4 mph - N/A   Clear
10:53 PM 42.1 °F 34.5 °F 37.0 °F 82% 29.91 in 10.0 mi WNW 15.0 mph - N/A   Clear
11:53 PM 42.1 °F 35.2 °F 36.0 °F 79% 29.92 in 10.0 mi WNW 12.7 mph - N/A   Clear